星链-31334 (STARLINK-31334 )

导读 | 星芒AI

STARLINK-31334 是 SpaceX 星链计划中的一颗低轨通信卫星,属于该系列的众多组网卫星之一。它主要用于提供全球范围内的高速互联网服务,特别是在偏远和网络覆盖不足的地区。该卫星采用先进的推进和通信技术,具备自动避障能力,以确保在轨运行安全。作为星链星座的一部分,STARLINK-31334 与其他卫星协同工作,提升全球互联网接入的稳定性和覆盖范围。

基本信息
目录编号:
59157
目录名称:
STARLINK-31334
国际标识:
2024-044F
轨道中心:
EARTH
卫星名称:
星链-31334
卫星全名:
星链-31334 (STARLINK-31334 )
卫星状态:
在轨 (已飞行655 天)
发射日期:
2024-03-04 UTC
国别 :
美国 (US)
星等 :
--
轨道信息
数据来源 国际轨道数据
星历时间: 2025-12-18T08:25:43+0800
1天前
查看轨道信息
半长轴: 6861.193km
偏心率: 0.0001268
轨道倾角: 43.002°
近地点辐角 273.617°
升交点赤经 211.816°
平近点角 86.453°
近地点: 482.188km
远地点: 483.928km
周期: 94.267分钟
每日圈数: 15.275779
详细信息
固有亮度:
5
最大亮度:
0.3
卫星平台:
Starlink v2.0 mini
覆盖范围:
全球
运营商:
太空探索技术公司
运营商所在国:
美国
制造商(研发单位):
太空探索技术公司
制造商所在国:
美国
使用方式:
暂无
卫星简介
星链(Starlink)计划是由太空探索技术公司(SpaceX)提出的一个巨型低轨卫星互联网星座项目,计划在2019年至2024年间在太空搭建由约1.2万颗卫星组成的“星链”网络,其中1584颗将部署在地球上空550千米处的近地轨道,并从2020年开始工作。该卫星仍在工作。
2D轨道图
3D轨道图
轨道高度分析图
轨道倾角分析图
轨道综合分析图
查看轨道综合分析图